Preview of NWS' New Version of Forecast
This preview is not operational and should not be used for support decisions.

Regional Weather Roundup (RWR)

Issued by Gray - Portland, ME (GYX)

                            
000
ASUS41 KGYX 201405
RWRGYX
WEATHER ROUNDUP FOR MAINE AND NEW HAMPSHIRE
NATIONAL WEATHER SERVICE GRAY ME
1000 AM EDT SUN MAY 20 2018

MEZ002-005-006-010-012-015-018-020-021-024-026-027-029-201500-
MAINE
  
CITY           SKY/WX    TMP DP  RH WIND       PRES   REMARKS
PORTLAND       PTSUNNY   64  61  90 S12       29.81F                  
SANFORD        PTSUNNY   67  63  87 SW7       29.82F                  
BAR HARBOR     CLOUDY    56  55  97 SW10      29.78F FOG              
WISCASSET      CLOUDY    60  58  92 SW7       29.80F                  
ROCKLAND       CLOUDY    57  57 100 W15G22    29.78F                  
FRYEBURG       FAIR      68  60  75 SW12G23   29.78F                  
LEWISTONAUBURN PTSUNNY   64  60  87 S6        29.78F                  
AUGUSTA        CLOUDY    58  56  93 VRB6      29.80S                  
WATERVILLE     CLOUDY    59  57  93 SW7       29.76F                  
BANGOR         CLOUDY    59  56  89 S6        29.77F                  
GREENVILLE       N/A     51  51 100 CALM      29.75S                  
MILLINOCKET    LGT RAIN  52  50  93 CALM      29.77S                  
HOULTON        CLOUDY    52  51  97 SW10      29.73F                  
PRESQUE ISLE   LGT RAIN  53  52  96 SW7       29.72F                  
FRENCHVILLE    CLOUDY    56  50  80 W10       29.69S                  
CARIBOU        CLOUDY    54  51  90 SW7       29.71S                  
$$

NHZ002-005-008-009-011-012-014-201500-
NEW HAMPSHIRE
  
CITY           SKY/WX    TMP DP  RH WIND       PRES   REMARKS
PORTSMOUTH     PTSUNNY   71  65  81 SW13G20   29.81F                  
ROCHESTER      PTSUNNY   68  65  90 VRB3      29.82F                  
NASHUA         CLOUDY    71  66  84 W7G18     29.86S                  
MANCHESTER     CLOUDY    74  64  71 SW12      29.83F                  
CONCORD        PTSUNNY   69  63  81 SW10      29.84F                  
LACONIA        CLOUDY    59  57  93 CALM      29.84F                  
PLYMOUTH       CLOUDY    54  51  89 CALM      29.83F                  
BERLIN         CLOUDY    64  61  90 VRB3      29.81R                  
WHITEFIELD     LGT RAIN  64  61  90 W5        29.81F                  
JAFFREY        CLOUDY    64  64 100 SW9       29.89F                  
KEENE          CLOUDY    64  62  93 W3        29.88F                  
LEBANON        LGT RAIN  63  58  83 SW5       29.84S FOG              
MT WASHINGTON  LGT RAIN  48  48 100 W53G59      N/A  VSB 0            
$$

VTZ005-007-008-201500-
VERMONT
  
CITY           SKY/WX    TMP DP  RH WIND       PRES   REMARKS
ST JOHNSBURY     N/A     60  60 100 MISG      29.82R                  
MONTPELIER     LGT RAIN  63  62  97 SW8       29.87R                  
BURLINGTON     LGT RAIN  60  57  89 N8        29.87R FOG              
$$

MAZ007-012-024-CTZ003-RIZ002-NYZ038-NYZ072-201500-
SOUTHERN NEW ENGLAND AND NY
  
CITY           SKY/WX    TMP DP  RH WIND       PRES   REMARKS
BOSTON         CLOUDY    71  66  84 SW16G26   29.86F                  
WORCESTER      CLOUDY    68  64  87 SW20G28   29.90F                  
NANTUCKET      FOG       58  58 100 SW16G25   29.98F VSB 1/4          
PROVIDENCE     CLOUDY    67  64  90 SW12      29.93F                  
HARTFORD       CLOUDY    66  64  93 S12       29.91F                  
ALBANY         CLOUDY    65  60  84 S7        29.88S                  
NEW YORK CITY  PTSUNNY   74  68  81 SW8       29.94F                  
$$

ANZ081-ANZ082-ANZ150-NHZ014-MEZ023>029-201500-
COASTAL MARINE OBSERVATIONS
  
STATION/POSITION TIME  TEMP    WIND        PRES    WAVE
                       AIR SEA DIR/SP/G            HT/PER
                 (UTC) (F)     (DEG/KT/KT) (MB)    (FT/S)
MOUNT DESERT ROC 1400   51     200/ 25/ 30 1008.6F
MATINICUS ROCK   1300   52     220/ 24/ 26 1009.2F
ISLE OF SHOALS   1300   62     220/ 12/ 13 1010.6S
JEFFREYS LEDGE   1336      49                N/A     4/ 7
CASHES LEDGE BUO 1350   54 49              1010.1F   5/ 5
$$

.............KEY..............
   WCI - WIND CHILL
   TC  - TEMPERATURE IN CELSIUS
   VSB - VISIBILITY IN MILES
   HX  - HEAT INDEX
   FAIR- INDICATES FEW OR NO CLOUDS BELOW 12,000 FT, WITH NO 
         SIGNIFICANT WEATHER AND/OR OBSTRUCTIONS TO VISIBILITY.